Debrecen, Hungary

6:37 PM CET on November 23, 2017 (GMT +0100)
Debrecen

Weather History for LHDC - March, 2013

Change the Weather History Date:

Friday, March 22, 2013

  Actual Average Record
Temperature  
Mean Temperature 36 °F -  
Max Temperature 39 °F 59 °F - ()
Min Temperature 32 °F 40 °F - ()
Degree Days  
Heating Degree Days 30    
Moisture  
Dew Point 34 °F    
Average Humidity 98    
Maximum Humidity 100    
Minimum Humidity 87    
Precipitation  
Precipitation 0.01 in 0.05 in - ()
Sea Level Pressure  
Sea Level Pressure 29.68 in    
Wind  
Wind Speed 17 mph ()    
Max Wind Speed 28 mph    
Max Gust Speed 47 mph    
Visibility 2.9 miles    
Events Rain , Snow    
T = Trace of Precipitation, MM = Missing Value Source: Averaged Metar Reports

Daily Weather History Graph

Daily Weather History Graph

Search for Another Location

Airport or City:

Trip Planner

Search our weather history database for the weather conditions in past years. The results will help you decide how hot, cold, wet, or windy it might be!

Date:

Astronomy

Mar. 22, 2013 Rise Set
Actual Time 5:32 AM CET 5:49 PM CET
Civil Twilight 5:01 AM CET 6:19 PM CET
Nautical Twilight 4:25 AM CET 6:56 PM CET
Astronomical Twilight 3:48 AM CET 7:33 PM CET
Moon 12:40 PM CET (3/22) 2:40 AM CET (3/22)
Length of Visible Light 13h 17m
Length of Day
12h 16m
Waxing Gibbous, 75% of the Moon is Illuminated
Mar 22
Waxing Gibbous
Mar 27
Full
Apr 3
Last Quarter
Apr 10
New
Apr 18
First Quarter

Hourly Weather History & Observations

Time (CET) Temp. Windchill Dew Point Humidity Pressure Visibility Wind Dir Wind Speed Gust Speed Precip Events Conditions
1:00 AM 38 °F - 36 °F 88% 29.64 in - NNW 11.2 mph - -  
1:52 AM 35.6 °F 25.9 °F 33.8 °F 93% 29.62 in - North 16.1 mph 32.2 mph N/A   Unknown
4:48 AM 35.6 °F 25.9 °F 32.0 °F 87% 29.62 in - North 16.1 mph 39.1 mph N/A   Unknown
5:15 AM 33.8 °F 23.2 °F 32.0 °F 93% 29.62 in 2.8 mi North 17.3 mph 31.1 mph N/A Rain Light Rain
5:40 AM 33.8 °F 23.5 °F 32.0 °F 93% 29.65 in 1.7 mi North 16.1 mph 34.5 mph N/A Rain Light Rain
5:45 AM 33.8 °F 23.5 °F 32.0 °F 93% 29.62 in 1.7 mi North 16.1 mph 34.5 mph N/A Rain Light Rain
6:00 AM - - - N/A% - 3.7 mi North 17.3 mph 29.9 mph N/A   Overcast
6:15 AM 33.8 °F 23.5 °F 32.0 °F 93% 29.62 in 1.6 mi NNW 16.1 mph 32.2 mph N/A Rain Light Rain
6:45 AM 33.8 °F 22.8 °F 32.0 °F 93% 29.62 in 1.1 mi NNW 18.4 mph 33.4 mph N/A Rain , Snow Light Rain
6:58 AM 33.8 °F 22.8 °F 33.8 °F 100% 29.62 in - North 18.4 mph 41.4 mph N/A   Unknown
7:00 AM 33 °F - 32 °F 95% 29.64 in 1 mi NNW 17.9 mph - - Snow Light Snow
7:15 AM 33.8 °F 22.2 °F 33.8 °F 100% 29.62 in 1.0 mi North 20.7 mph 38.0 mph N/A Rain , Snow Light Rain
7:31 AM 32.0 °F 18.9 °F 32.0 °F 100% 29.65 in 0.4 mi North 24.2 mph 47.2 mph N/A Rain , Snow Light Rain
7:40 AM 32.0 °F 18.9 °F 32.0 °F 100% 29.65 in 0.4 mi North 24.2 mph 43.7 mph N/A Rain , Snow Light Rain
7:45 AM 32.0 °F 19.2 °F 32.0 °F 100% 29.62 in 0.4 mi North 23.0 mph 43.7 mph N/A Rain , Snow Light Rain
8:00 AM - - - N/A% - 3.7 mi North 17.3 mph 29.9 mph N/A   Overcast
8:15 AM 32.0 °F 18.9 °F 32.0 °F 100% 29.65 in 0.4 mi North 24.2 mph 42.6 mph N/A Rain , Snow Light Rain
8:45 AM 32.0 °F 18.9 °F 32.0 °F 100% 29.65 in 0.4 mi North 24.2 mph 46.0 mph N/A Rain , Snow Light Rain
9:00 AM - - - N/A% - 1.9 mi North 27.6 mph 43.7 mph N/A Rain Light Rain
9:15 AM 32.0 °F 18.9 °F 32.0 °F 100% 29.65 in 0.4 mi North 24.2 mph 39.1 mph N/A Rain , Snow Light Rain
9:31 AM 32.0 °F 19.5 °F 32.0 °F 100% 29.68 in 1.2 mi North 21.9 mph 38.0 mph N/A Rain , Snow Light Rain
9:45 AM 32.0 °F 19.2 °F 32.0 °F 100% 29.65 in 1.2 mi North 23.0 mph 34.5 mph N/A Rain , Snow Light Rain
10:15 AM 33.8 °F 22.2 °F 32.0 °F 93% 29.65 in 1.2 mi North 20.7 mph 36.8 mph N/A Rain , Snow Light Rain
10:45 AM 33.8 °F 21.6 °F 33.8 °F 100% 29.68 in 1.2 mi North 23.0 mph 34.5 mph N/A Rain , Snow Light Rain
11:15 AM 33.8 °F 21.6 °F 33.8 °F 100% 29.68 in 1.7 mi North 23.0 mph 41.4 mph N/A Rain , Snow Light Rain
11:20 AM 33.8 °F 21.9 °F 33.8 °F 100% 29.71 in 2.2 mi North 21.9 mph 34.5 mph N/A Rain , Snow Light Rain
11:38 AM 33.8 °F 22.2 °F 33.8 °F 100% 29.71 in 3.7 mi North 20.7 mph 34.5 mph N/A   Overcast
11:45 AM 33.8 °F 22.5 °F 33.8 °F 100% 29.71 in 3.7 mi North 19.6 mph 34.5 mph N/A   Overcast
11:48 AM 33.8 °F 22.5 °F 33.8 °F 100% 29.71 in 5.0 mi North 19.6 mph 38.0 mph N/A   Overcast
12:00 PM - - - N/A% - 1.9 mi North 23.0 mph 39.1 mph N/A Rain Light Rain
12:15 PM 35.6 °F 23.4 °F 35.6 °F 100% 29.71 in - North 25.3 mph 43.7 mph N/A   Clear
12:45 PM 35.6 °F 25.2 °F 35.6 °F 100% 29.71 in - North 18.4 mph - N/A   Clear
1:00 PM 36 °F - 36 °F 100% 29.73 in 9 mi North 17.9 mph - -   Partly Cloudy
1:15 PM 37.4 °F 28.2 °F 35.6 °F 93% 29.74 in - NNW 16.1 mph 31.1 mph N/A   Clear
1:45 PM 37.4 °F 26.9 °F 37.4 °F 100% 29.74 in 6.2 mi NNW 20.7 mph 46.0 mph N/A   Overcast
2:15 PM 39.2 °F 29.8 °F 39.2 °F 100% 29.74 in 6.2 mi North 18.4 mph 36.8 mph N/A   Overcast
2:45 PM 39.2 °F 29.0 °F 39.2 °F 100% 29.74 in 6.2 mi North 21.9 mph 35.7 mph N/A   Overcast
3:15 PM 39.2 °F 28.3 °F 39.2 °F 100% 29.74 in 6.2 mi North 25.3 mph 42.6 mph N/A   Scattered Clouds
3:45 PM 39.2 °F 29.0 °F 39.2 °F 100% 29.77 in 6.2 mi North 21.9 mph 40.3 mph N/A   Scattered Clouds
4:15 PM 37.4 °F 26.9 °F 37.4 °F 100% 29.77 in 6.2 mi NNW 20.7 mph 39.1 mph N/A   Scattered Clouds
4:45 PM 37.4 °F 27.5 °F 37.4 °F 100% 29.80 in 6.2 mi North 18.4 mph 32.2 mph N/A   Scattered Clouds
5:00 PM - - - N/A% - - North - - N/A   Unknown
7:00 PM 34 °F - 34 °F 100% 29.88 in - North 15.7 mph - -